Location: Middelsbur
(53.6609°N, 7.5020°E)
Time: 23:27:10
(UTC+00:00)

Cosmos 371 Rocket - Pass Details

Date: 06 July 2020
Orbit: 685 x 698 km, 74.0° (Epoch: 14 August)

Event Time Altitude Azimuth Distance (km) Brightness Sun altitude
Rises 22:40:40 0° 333° (NNW) 3,088 8.3 -12.9°
Reaches altitude 10° 22:43:00 10° 333° (NNW) 2,165 7.2 -13.0°
Maximum altitude 22:47:53 86° 247° (WSW) 702 3.3 -13.1°
Enters shadow 22:51:21 19° 157° (SSE) 1,609 4.6 -13.2°
